Home   Weather   Montreux   Past weeks

Flag for Switzerland Past Weather in Montreux, Vaud, Switzerland — Yesterday and Last 2 Weeks

Now
49 °F

Cool.


Feels Like: 49 °F
Forecast: 44 / 61 °F
Wind: 2 mph from South

Location: Aigle

Current Time: Sep 25, 2016 at 7:34:20 AM

Latest Report: Sep 25, 2016 at 6:00 AM


Visibility: N/A

Pressure: 30.20 "Hg

Humidity: 95%

Dew Point: 48 °F

Location of MontreuxLocation

Past Weather in Montreux — Graph

°F

Montreux Temperature Yesterday

Maximum temperature yesterday: 69 °F (at 4:00 PM)
Minimum temperature yesterday: 49 °F (at 5:00 AM)
Average temperature yesterday: 58 °F

High & Low Weather Summary for the Past Weeks

 TemperatureHumidityPressure
High82 °F (Sep 14, 2:00 PM)100% (Sep 18, 12:00 AM)30.30 "Hg (Sep 18, 12:00 AM)
Low48 °F (Sep 22, 4:00 AM)29% (Sep 14, 11:00 PM)29.74 "Hg (Sep 15, 2:00 AM)
Average62 °F83%30.03 "Hg
* Reported Sep 10 6:00 AM — Sep 25 6:00 AM, Montreux, Weather by CustomWeather, © 2016

Note: Actual official high and low records may vary slightly from our data, if they occured in-between our weather recording intervals... More about our weather records

Advertising

Montreux Weather History for the Previous 24 Hours

Scroll right to see more
 ConditionsComfort  
Time TempWeatherWind HumidityBarometerVisibility
6:00 AM
Sun, Sep 25
49 °FCool.2 mph95%30.20 "HgN/A
5:00 AM50 °FClear.2 mph95%30.21 "Hg9 mi
4:00 AM49 °FCool.3 mph97%30.21 "HgN/A
3:00 AM49 °FCool.1 mph97%30.22 "HgN/A
2:00 AM51 °FCool.1 mph97%30.22 "HgN/A
1:00 AM50 °FCool.1 mph97%30.22 "HgN/A
12:00 AM53 °FCool.5 mph96%30.22 "HgN/A
11:00 PM
Sat, Sep 24
54 °FCool.2 mph94%30.22 "HgN/A
10:00 PM54 °FCool.2 mph95%30.21 "HgN/A
9:00 PM56 °FCool.2 mph93%30.20 "HgN/A
8:00 PM56 °FClear.1 mph95%30.19 "Hg25 mi
7:00 PM59 °FCool.No wind94%30.18 "HgN/A
6:00 PM66 °FMild.2 mph73%30.16 "HgN/A
5:00 PM69 °FPassing clouds.2 mph64%30.17 "Hg28 mi
4:00 PM69 °FMild.3 mph60%30.19 "HgN/A
3:00 PM69 °FMild.7 mph62%30.21 "HgN/A
2:00 PM67 °FSunny.8 mph66%30.23 "Hg28 mi
1:00 PM65 °FMild.9 mph67%30.24 "HgN/A
12:00 PM66 °FMild.5 mph69%30.25 "HgN/A
11:00 AM64 °FSunny.6 mph73%30.27 "Hg19 mi
10:00 AM61 °FCool.3 mph79%30.27 "HgN/A
9:00 AM56 °FCool.1 mph93%30.28 "HgN/A
8:00 AM50 °FFog.3 mph97%30.30 "Hg6 mi
7:00 AM51 °FCool.5 mph95%30.29 "HgN/A
Weather by CustomWeather, © 2016

See weather overviewHow to use our weather pages